Helicity
25 29 22 28 39 32 27 28 22 17 20 23 21 26 23 32 49 44 42 49 48 42 47 46 43 42 40 40 42 49 56 59 56 54 48 39 33 31 29 26 25 17 11
31 35 35 32 36 31 26 27 25 25 25 24 21 22 18 22 24 40 44 41 45 46 42 46 46 46 45 44 43 52 57 62 60 58 53 45 34 24 22 28 32 30 24
26 39 37 31 40 35 36 28 30 29 36 29 29 26 27 28 30 31 39 51 54 50 53 48 47 49 51 50 51 58 61 64 63 61 62 59 47 35 25 25 35 42 34
64 63 56 43 41 39 36 36 32 35 36 35 33 32 28 31 34 38 40 49 63 63 57 50 49 45 47 49 51 55 59 63 65 66 68 66 58 42 26 27 42 48 50
92 75 69 57 52 46 40 36 40 39 34 32 31 35 38 40 29 41 39 46 51 67 83 63 58 62 53 46 47 49 54 61 64 63 64 58 53 47 39 24 35 41 49
99 104 83 75 64 58 55 48 46 38 40 40 46 46 48 33 28 39 50 50 50 53 61 81 89 88 59 47 47 47 52 63 66 61 55 54 53 59 57 44 38 37 43
108 104 89 83 76 74 61 58 53 60 54 44 47 54 47 41 58 37 42 49 30 34 43 57 102 109 100 59 56 50 49 49 52 56 57 56 59 62 59 51 40 40 56
112 108 95 75 69 69 77 70 70 66 58 45 46 46 62 48 46 31 39 47 44 62 57 60 89 107 129 138 118 74 64 54 52 54 59 62 66 65 63 54 46 49 68
117 104 95 79 76 86 90 77 68 70 62 41 48 46 46 59 49 74 57 60 81 77 85 101 108 111 127 156 155 154 124 97 72 60 60 65 68 65 62 61 51 56 67
132 117 93 85 89 89 93 71 62 55 57 63 44 56 47 60 56 55 69 83 83 98 108 113 134 120 130 152 155 155 162 163 117 93 77 70 65 60 53 55 49 38 56
144 112 100 135 126 101 82 80 75 74 57 55 53 48 56 71 91 103 73 63 85 88 90 95 86 72 78 94 139 142 134 128 111 104 86 60 51 50 29 42 49 48 59
182 177 141 148 117 98 87 79 69 63 55 49 46 57 60 62 74 104 130 109 89 67 76 85 79 89 100 110 116 119 162 128 104 85 89 81 78 53 47 51 61 58 66
192 189 158 152 122 107 104 87 82 78 67 60 59 58 74 84 102 112 128 124 139 107 84 69 66 66 56 56 43 43 70 107 106 64 78 83 67 64 50 58 75 72 60
213 203 193 165 146 128 114 101 87 80 81 87 107 111 100 119 125 128 116 118 111 98 95 81 86 77 82 89 89 73 99 78 65 106 69 66 98 98 71 71 108 63 53
257 248 224 191 166 147 128 104 90 97 100 104 109 124 122 118 122 125 126 124 122 120 86 64 50 89 86 93 91 102 109 87 90 92 66 68 63 72 66 94 77 80 53
303 276 245 218 176 150 124 115 110 124 123 117 119 131 138 128 135 143 149 143 131 118 134 117 108 104 100 105 94 89 99 91 98 94 93 83 78 76 70 101 101 85 61
289 305 244 213 167 149 138 135 137 128 113 105 111 129 147 134 134 138 133 124 119 113 106 103 94 76 63 58 65 71 91 107 137 108 122 77 68 32 52 126 110 129 196
330 253 243 193 161 148 137 133 119 107 107 120 130 148 141 132 132 124 117 112 104 97 94 85 80 86 67 67 70 78 72 93 142 130 102 72 17 50 28 130 239 172 91
276 246 195 170 156 141 115 116 112 110 113 120 143 142 127 125 121 117 107 86 79 77 79 107 118 117 123 93 90 102 118 121 141 106 92 41 69 38 32 186 292 269 171
227 200 180 158 146 117 116 118 113 123 142 156 138 123 118 110 102 91 77 83 69 85 89 108 100 103 104 103 103 105 136 122 152 138 92 50 25 14 110 182 120 128 82
201 176 162 159 151 126 103 112 120 133 149 145 125 118 100 71 48 55 87 79 72 89 95 90 96 101 118 122 121 130 148 147 146 116 87 92 138 129 125 165 117 63 100
195 190 184 166 155 118 121 144 144 131 120 108 111 89 66 51 61 56 54 48 66 79 86 108 135 136 139 140 142 136 125 125 127 150 163 178 247 263 295 224 45 41 116
185 183 164 150 137 123 148 151 124 100 110 99 80 70 70 77 75 82 73 69 80 57 83 125 161 170 161 141 118 100 93 122 134 140 217 209 248 225 139 57 53 169 212
193 171 161 148 137 123 128 125 145 116 94 80 71 66 69 69 78 74 84 89 110 119 122 135 173 175 169 131 101 73 115 122 129 160 149 119 130 186 184 137 127 167 110
167 154 128 124 117 104 129 148 147 86 66 69 65 67 57 74 56 41 93 114 138 136 112 62 99 78 96 76 83 100 108 92 60 42 29 64 94 190 273 281 163 143 88
153 125 105 86 92 107 136 136 116 74 83 75 55 68 54 62 64 91 134 150 156 150 138 118 189 154 113 77 70 80 61 58 42 45 51 83 116 133 125 154 176 107 67
Wind_Speed
27 29 31 33 33 35 36 37 38 40 40 41 41 41 41 40 39 34 30 30 33 35 34 35 37 38 39 39 39 39 41 44 47 50 51 53 54 56 57 58 58 59 60
26 26 28 30 32 34 37 38 38 40 40 41 41 42 39 38 37 36 32 29 30 32 34 34 36 38 38 37 37 37 40 43 47 49 52 53 55 55 57 57 59 61 63
25 26 27 30 30 34 35 37 37 40 42 42 41 42 41 39 35 35 37 33 29 30 31 32 35 37 38 39 39 39 41 44 47 50 52 54 56 57 58 59 62 63 65
24 27 28 29 30 34 34 35 38 39 42 44 46 47 44 41 38 37 37 36 32 33 33 34 37 39 41 42 42 42 43 45 47 50 53 55 58 58 59 60 63 66 69
24 27 28 29 32 33 35 36 38 40 43 47 46 49 49 43 38 38 37 40 39 39 38 39 40 41 43 43 43 44 45 47 48 51 53 55 57 59 61 62 63 65 68
24 26 28 31 33 35 37 37 40 44 45 48 53 52 52 46 41 37 41 43 44 46 44 42 42 42 42 44 44 45 47 49 51 53 55 57 60 62 63 64 64 64 65
22 24 27 31 34 37 39 41 41 45 46 52 51 57 48 52 41 42 45 46 46 49 49 47 45 46 46 48 48 49 51 53 55 55 57 59 61 62 64 65 64 65 64
21 24 26 30 33 36 39 41 43 46 45 51 51 49 51 47 46 64 49 46 51 53 55 56 54 52 51 52 53 52 53 56 59 61 64 63 63 63 64 66 65 64 61
21 23 26 30 33 35 38 41 40 42 46 45 48 47 53 55 68 49 60 53 56 69 68 65 63 59 58 58 58 58 58 59 62 65 68 65 64 65 65 66 66 62 58
22 25 29 32 35 37 39 40 40 41 43 47 48 47 48 51 60 70 55 69 66 72 71 74 73 73 72 67 63 60 62 62 61 63 65 66 66 67 66 65 64 62 55
23 27 30 33 36 38 38 39 40 42 42 45 49 52 55 59 59 66 85 82 75 70 71 72 76 78 78 77 74 70 68 67 67 68 69 68 68 67 67 66 63 63 60
23 27 32 34 36 37 37 38 39 41 43 46 49 54 58 61 69 70 76 83 88 85 77 75 75 74 77 79 80 82 77 74 71 71 71 73 73 71 68 67 67 68 69
22 27 31 34 35 35 37 39 41 44 46 50 54 57 58 62 66 71 77 86 87 87 81 75 77 79 77 79 82 85 87 89 88 81 72 73 75 75 74 72 70 69 73
22 26 29 32 33 35 38 40 42 46 50 55 59 62 63 66 69 73 78 88 99 88 83 80 79 78 77 81 83 90 89 92 95 93 85 77 77 74 74 72 71 75 73
22 26 29 31 33 36 40 41 46 51 54 58 61 65 67 69 73 75 78 80 86 100 99 87 85 82 86 87 87 89 90 92 94 93 90 82 77 77 79 74 72 74 77
22 25 27 29 32 37 41 44 48 54 58 62 63 66 69 71 74 77 78 78 78 86 93 92 90 91 91 92 92 93 92 94 89 88 88 84 81 81 81 74 72 77 79
22 25 27 31 34 39 44 47 52 57 61 63 65 68 72 74 77 77 77 78 80 82 94 94 91 92 96 96 96 95 91 92 90 92 90 84 82 83 77 68 71 69 65
23 26 30 33 37 42 46 49 55 59 63 67 69 72 75 75 75 75 76 80 80 78 85 102 99 100 99 96 97 97 95 94 95 92 89 80 84 81 72 58 51 47 64
25 29 31 35 40 44 45 51 57 62 66 68 71 74 75 75 74 74 76 76 77 80 86 95 108 98 97 94 97 93 96 93 88 86 79 74 77 68 60 39 37 63 66
26 30 34 38 43 44 48 55 59 64 69 72 72 72 73 72 75 76 75 79 80 86 89 94 101 105 98 93 90 98 99 90 89 83 71 67 66 63 37 30 54 57 57
28 32 37 41 47 49 52 58 62 68 73 75 73 72 70 71 73 72 75 82 83 87 91 96 98 102 99 100 97 90 90 90 86 75 66 58 45 46 25 36 43 41 27
32 37 41 47 52 55 57 62 67 70 73 74 76 73 73 74 75 79 78 77 81 89 93 93 96 96 98 92 87 86 86 85 86 59 57 54 53 33 34 38 35 15 6
36 41 46 51 56 59 63 68 70 70 73 74 75 76 78 77 81 80 80 78 79 79 78 83 91 92 94 85 82 81 80 78 66 57 44 44 47 42 41 35 15 14 16
42 46 51 55 60 63 67 68 71 72 72 73 75 76 78 79 79 82 83 85 87 82 81 80 75 81 74 73 75 77 70 63 46 44 42 38 36 35 31 21 19 18 16
45 51 55 60 65 67 70 73 76 77 76 77 75 74 78 81 80 83 89 98 98 92 83 81 73 72 71 71 66 62 60 52 42 36 38 28 26 25 24 21 21 20 18
50 54 59 62 66 70 71 73 75 77 80 80 77 78 79 80 84 86 92 97 101 99 96 91 75 71 68 61 56 51 49 42 41 32 27 26 20 23 26 28 24 19 17
Wind_Direction
35 32 33 23 20 15 10 6 358 350 348 346 345 348 349 354 0 15 21 22 17 13 13 10 6 5 5 3 2 1 360 357 355 353 352 352 350 349 347 345 344 342 340
26 27 22 16 14 10 2 358 1 357 353 353 353 351 1 3 2 1 8 14 13 10 9 6 2 360 359 359 358 356 353 350 349 348 347 347 346 345 344 343 341 340 338
29 19 22 15 19 15 15 11 9 2 356 357 357 354 355 359 3 1 356 359 3 5 4 2 357 353 350 348 346 345 344 343 342 342 341 341 341 340 339 338 337 336 335
16 17 17 20 22 16 18 17 8 3 358 352 348 345 348 352 354 354 352 354 357 355 354 351 348 346 344 341 339 338 337 337 337 337 336 336 336 336 335 334 333 332 331
6 11 19 22 16 13 12 12 7 1 354 348 348 343 341 347 351 352 352 350 349 347 346 345 342 340 338 337 335 333 332 332 332 332 332 332 332 332 331 330 330 330 330
11 11 14 10 8 6 4 5 359 352 351 347 340 340 339 344 349 352 349 347 345 342 342 341 341 340 337 335 333 331 329 327 327 326 326 326 326 327 327 327 327 327 328
8 11 9 7 4 359 356 355 355 349 348 345 345 339 346 344 353 352 346 345 345 344 342 341 339 337 334 332 329 327 325 324 322 321 321 321 322 323 324 324 324 324 325
9 10 10 5 0 356 353 352 350 345 347 348 344 345 342 344 346 334 343 344 343 343 340 337 334 332 331 329 326 323 321 320 319 317 317 317 317 318 319 320 320 320 321
7 8 6 2 359 357 353 351 352 351 346 349 351 347 338 333 333 341 338 342 340 333 333 333 331 329 326 324 323 322 319 317 316 315 315 314 314 314 315 316 316 316 317
5 2 359 357 356 354 351 351 351 351 350 346 346 348 344 339 334 328 336 329 334 331 331 331 330 327 326 323 320 317 318 317 316 314 314 312 311 311 311 312 313 312 312
0 357 355 354 352 352 353 354 353 352 351 347 346 343 341 337 335 329 322 325 328 330 331 331 330 328 326 324 323 318 315 314 314 313 312 312 310 309 308 308 309 309 308
355 357 356 356 355 355 355 355 354 353 352 348 346 343 339 337 332 331 327 326 324 327 330 330 329 329 328 326 324 322 319 315 313 311 309 309 309 308 306 305 305 305 305
354 354 356 356 356 357 357 355 354 353 351 346 344 341 340 337 335 331 329 326 325 326 328 330 330 329 329 328 326 323 321 319 316 311 306 306 307 306 304 303 302 301 301
353 357 358 358 357 356 354 353 351 349 346 343 341 340 339 338 337 335 331 328 324 326 328 329 330 329 329 328 326 323 323 319 316 314 308 305 303 302 301 299 297 300 300
353 357 358 358 355 351 349 349 345 343 343 341 340 339 338 337 336 335 333 331 328 324 324 329 330 331 328 326 325 323 321 320 319 316 312 308 302 299 299 296 293 295 296
355 358 2 2 356 348 346 344 343 341 340 340 340 339 338 338 337 335 334 333 331 327 323 327 328 328 328 327 325 324 322 320 319 317 314 308 303 300 298 292 292 293 292
357 357 359 353 350 344 342 342 340 339 338 338 339 338 337 337 335 335 335 334 331 329 323 325 328 329 328 327 327 327 325 322 319 316 314 309 306 304 298 292 293 293 295
357 353 351 348 345 339 338 339 337 337 337 337 337 336 336 336 335 335 334 332 331 332 328 324 327 327 328 328 328 328 328 326 322 319 314 309 308 304 301 294 293 290 292
349 347 347 344 338 335 336 336 337 337 338 337 336 335 334 334 334 334 334 334 333 331 328 325 323 327 328 330 329 329 329 329 328 326 322 316 313 306 305 296 307 294 286
347 345 344 342 336 335 334 333 335 335 336 337 336 336 335 335 333 332 333 332 331 329 328 326 325 326 329 331 331 329 330 332 331 330 325 322 317 315 312 314 301 293 295
345 342 341 337 334 332 332 332 333 333 334 334 335 336 336 335 334 334 332 331 330 329 328 327 326 327 328 329 329 331 329 330 332 332 328 331 331 321 310 313 310 297 314
341 337 337 333 331 330 331 332 331 332 333 333 333 334 335 334 333 331 331 331 332 328 326 327 326 327 327 327 328 330 331 332 332 340 335 335 334 332 308 320 313 327 13
334 335 333 330 329 330 330 330 331 331 332 332 332 332 332 333 332 332 331 330 331 330 329 325 323 324 324 327 328 329 330 330 334 342 347 340 325 312 314 315 2 57 64
332 331 330 329 328 329 330 330 330 330 330 331 331 331 330 331 333 332 331 330 329 329 328 327 322 322 324 324 325 325 329 335 344 348 349 340 339 334 356 12 48 48 47
330 328 327 327 326 327 329 329 329 329 329 330 331 332 332 331 333 332 330 327 327 328 329 327 323 321 321 320 325 327 329 336 346 354 348 18 1 1 345 341 9 15 29
326 326 325 326 326 326 329 330 330 329 328 329 331 331 333 333 332 332 329 328 326 327 328 327 324 323 323 320 321 324 327 334 331 341 345 351 341 338 336 318 336 349 8